Year,Month,Day,Hour,Minute,Value (Times are PST for barometer in hPa)
2021,09,24,00,00,946.36
2021,09,24,00,01,946.36
2021,09,24,00,02,946.36
2021,09,24,00,03,946.36
2021,09,24,00,04,946.36
2021,09,24,00,05,946.36
2021,09,24,00,06,946.36
2021,09,24,00,07,946.36
2021,09,24,00,08,946.36
2021,09,24,00,09,946.36
2021,09,24,00,10,946.36
2021,09,24,00,11,946.36
2021,09,24,00,12,946.36
2021,09,24,00,13,946.36
2021,09,24,00,14,946.36
2021,09,24,00,15,946.36
2021,09,24,00,16,946.36
2021,09,24,00,17,946.36
2021,09,24,00,18,946.36
2021,09,24,00,19,946.36
2021,09,24,00,20,946.36
2021,09,24,00,21,946.36
2021,09,24,00,22,946.36
2021,09,24,00,23,946.36
2021,09,24,00,24,946.36
2021,09,24,00,25,946.36
2021,09,24,00,26,946.36
2021,09,24,00,27,946.36
2021,09,24,00,28,946.36
2021,09,24,00,29,946.36
2021,09,24,00,30,946.36
2021,09,24,00,31,946.36
2021,09,24,00,32,946.36
2021,09,24,00,33,946.36
2021,09,24,00,34,946.36
2021,09,24,00,35,946.36
2021,09,24,00,36,946.36
2021,09,24,00,37,946.36
2021,09,24,00,38,955.46
2021,09,24,00,39,961.53
2021,09,24,00,40,961.53
2021,09,24,00,41,961.53
2021,09,24,00,42,964.33
2021,09,24,00,43,966.37
2021,09,24,00,44,966.37
2021,09,24,00,45,966.37
2021,09,24,00,46,966.37
2021,09,24,00,47,966.37
2021,09,24,00,48,966.37
2021,09,24,00,49,966.37
2021,09,24,00,50,966.37
2021,09,24,00,51,966.37
2021,09,24,00,52,966.37
2021,09,24,00,53,964.89
2021,09,24,00,54,963.90
2021,09,24,00,55,963.90
2021,09,24,00,56,964.51
2021,09,24,00,57,964.92
2021,09,24,00,58,963.80
2021,09,24,00,59,963.32
2021,09,24,01,00,963.50
2021,09,24,01,01,963.50
2021,09,24,01,02,963.50
2021,09,24,01,03,963.50
2021,09,24,01,04,966.12
2021,09,24,01,05,967.86
2021,09,24,01,06,967.86
2021,09,24,01,07,967.86
2021,09,24,01,08,967.86
2021,09,24,01,09,967.86
2021,09,24,01,10,967.86
2021,09,24,01,11,967.86
2021,09,24,01,12,967.86
2021,09,24,01,13,967.86
2021,09,24,01,14,967.86
2021,09,24,01,15,967.86
2021,09,24,01,16,967.86
2021,09,24,01,17,967.86
2021,09,24,01,18,967.86
2021,09,24,01,19,967.86
2021,09,24,01,20,967.86
2021,09,24,01,21,967.86
2021,09,24,01,22,967.86
2021,09,24,01,23,967.86
2021,09,24,01,24,967.86
2021,09,24,01,25,967.86
2021,09,24,01,26,967.86
2021,09,24,01,27,967.86
2021,09,24,01,28,967.86
2021,09,24,01,29,974.32
2021,09,24,01,30,978.70
2021,09,24,01,31,978.50
2021,09,24,01,32,978.50
2021,09,24,01,33,978.50
2021,09,24,01,34,978.50
2021,09,24,01,35,978.50
2021,09,24,01,36,978.50
2021,09,24,01,37,978.50
2021,09,24,01,38,978.50
2021,09,24,01,39,978.50
2021,09,24,01,40,978.50
2021,09,24,01,41,978.50
2021,09,24,01,42,978.50
2021,09,24,01,43,978.50
2021,09,24,01,44,978.50
2021,09,24,01,45,978.50
2021,09,24,01,46,981.15
2021,09,24,01,47,983.07
2021,09,24,01,48,983.07
2021,09,24,01,49,983.07
2021,09,24,01,50,983.07
2021,09,24,01,51,983.07
2021,09,24,01,52,983.07
2021,09,24,01,53,983.07
2021,09,24,01,54,983.07
2021,09,24,01,55,982.38
2021,09,24,01,56,981.82
2021,09,24,01,57,981.82
2021,09,24,01,58,981.82
2021,09,24,01,59,981.82
2021,09,24,02,00,981.82
2021,09,24,02,01,981.82
2021,09,24,02,02,985.53
2021,09,24,02,03,987.68
2021,09,24,02,04,987.44
2021,09,24,02,05,987.44
2021,09,24,02,06,987.44
2021,09,24,02,07,987.44
2021,09,24,02,08,987.44
2021,09,24,02,09,987.44
2021,09,24,02,10,987.44
2021,09,24,02,11,987.44
2021,09,24,02,12,986.52
2021,09,24,02,13,985.85
2021,09,24,02,14,985.81
2021,09,24,02,15,985.81
2021,09,24,02,16,985.81
2021,09,24,02,17,985.81
2021,09,24,02,18,985.81
2021,09,24,02,19,985.81
2021,09,24,02,20,985.81
2021,09,24,02,21,985.81
2021,09,24,02,22,985.81
2021,09,24,02,23,985.81
2021,09,24,02,24,985.81
2021,09,24,02,25,985.81
2021,09,24,02,26,985.81
2021,09,24,02,27,985.81
2021,09,24,02,28,985.81
2021,09,24,02,29,985.81
2021,09,24,02,30,985.46
2021,09,24,02,31,985.17
2021,09,24,02,32,985.17
2021,09,24,02,33,984.45
2021,09,24,02,34,983.92
2021,09,24,02,35,983.92
2021,09,24,02,36,980.06
2021,09,24,02,37,977.48
2021,09,24,02,38,977.48
2021,09,24,02,39,977.48
2021,09,24,02,40,977.48
2021,09,24,02,41,977.48
2021,09,24,02,42,977.48
2021,09,24,02,43,977.48
2021,09,24,02,44,977.48
2021,09,24,02,45,977.48
2021,09,24,02,46,977.48
2021,09,24,02,47,977.48
2021,09,24,02,48,977.48
2021,09,24,02,49,977.48
2021,09,24,02,50,977.48
2021,09,24,02,51,977.48
2021,09,24,02,52,977.48
2021,09,24,02,53,977.48
2021,09,24,02,54,977.48
2021,09,24,02,55,977.48
2021,09,24,02,56,977.48
2021,09,24,02,57,979.68
2021,09,24,02,58,981.48
2021,09,24,02,59,981.48
2021,09,24,03,00,981.48
2021,09,24,03,01,981.48
2021,09,24,03,02,981.48
2021,09,24,03,06,980.83
2021,09,24,03,07,980.83
2021,09,24,03,08,980.83
2021,09,24,03,09,980.83
2021,09,24,03,10,980.83
2021,09,24,03,11,980.83
2021,09,24,03,12,980.83
2021,09,24,03,13,980.83
2021,09,24,03,14,980.83
2021,09,24,03,15,980.83
2021,09,24,03,16,980.83
2021,09,24,03,17,980.83
2021,09,24,03,18,980.83
2021,09,24,03,19,979.77
2021,09,24,03,20,979.41
2021,09,24,03,21,979.41
2021,09,24,03,22,979.41
2021,09,24,03,23,979.41
2021,09,24,03,24,979.41
2021,09,24,03,25,979.41
2021,09,24,03,26,979.41
2021,09,24,03,27,979.41
2021,09,24,03,28,979.41
2021,09,24,03,29,979.41
2021,09,24,03,30,979.41
2021,09,24,03,31,979.41
2021,09,24,03,32,979.41
2021,09,24,03,33,979.41
2021,09,24,03,34,979.41
2021,09,24,03,35,979.41
2021,09,24,03,36,979.41
2021,09,24,03,37,979.70
2021,09,24,03,38,979.82
2021,09,24,03,39,980.63
2021,09,24,03,40,980.90
2021,09,24,03,41,980.90
2021,09,24,03,42,983.74
2021,09,24,03,43,984.76
2021,09,24,03,44,984.76
2021,09,24,03,45,982.30
2021,09,24,03,46,981.36
2021,09,24,03,47,981.31
2021,09,24,03,48,981.31
2021,09,24,03,49,984.75
2021,09,24,03,50,986.22
2021,09,24,03,51,986.22
2021,09,24,03,52,986.22
2021,09,24,03,53,986.22
2021,09,24,03,54,986.22
2021,09,24,03,55,986.22
2021,09,24,03,56,986.22
2021,09,24,03,57,986.22
2021,09,24,03,58,986.22
2021,09,24,03,59,986.22
2021,09,24,04,00,986.22
2021,09,24,04,01,986.22
2021,09,24,04,02,986.22
2021,09,24,04,03,986.22
2021,09,24,04,04,986.22
2021,09,24,04,05,986.22
2021,09,24,04,06,986.22
2021,09,24,04,07,986.22
2021,09,24,04,08,986.22
2021,09,24,04,09,986.22
2021,09,24,04,10,986.22
2021,09,24,04,11,986.22
2021,09,24,04,12,986.22
2021,09,24,04,13,986.22
2021,09,24,04,14,986.22
2021,09,24,04,15,986.22
2021,09,24,04,16,984.58
2021,09,24,04,17,983.88
2021,09,24,04,18,980.31
2021,09,24,04,19,979.04
2021,09,24,04,20,979.04
2021,09,24,04,21,980.86
2021,09,24,04,22,981.51
2021,09,24,04,23,981.51
2021,09,24,04,24,981.51
2021,09,24,04,25,985.26
2021,09,24,04,26,986.76
2021,09,24,04,27,986.76
2021,09,24,04,28,986.76
2021,09,24,04,29,986.76
2021,09,24,04,30,986.76
2021,09,24,04,31,986.76
2021,09,24,04,32,986.76
2021,09,24,04,33,986.76
2021,09,24,04,34,986.76
2021,09,24,04,35,986.76
2021,09,24,04,36,986.76
2021,09,24,04,37,986.76
2021,09,24,04,38,986.76
2021,09,24,04,39,986.76
2021,09,24,04,40,986.76
2021,09,24,04,41,986.76
2021,09,24,04,42,984.94
2021,09,24,04,43,984.03
2021,09,24,04,44,983.92
2021,09,24,04,45,983.92
2021,09,24,04,46,983.92
2021,09,24,04,47,985.15
2021,09,24,04,48,985.72
2021,09,24,04,49,985.74
2021,09,24,04,50,985.74
2021,09,24,04,51,985.74
2021,09,24,04,52,985.79
2021,09,24,04,53,985.81
2021,09,24,04,54,985.81
2021,09,24,04,55,989.70
2021,09,24,04,56,991.09
2021,09,24,04,57,991.09
2021,09,24,04,58,991.09
2021,09,24,04,59,991.09
2021,09,24,05,00,991.09
2021,09,24,05,01,991.09
2021,09,24,05,02,991.09
2021,09,24,05,03,991.09
2021,09,24,05,04,991.09
2021,09,24,05,05,991.09
2021,09,24,05,06,991.09
2021,09,24,05,07,992.62
2021,09,24,05,08,993.13
2021,09,24,05,09,997.06
2021,09,24,05,10,998.88
2021,09,24,05,11,998.88
2021,09,24,05,12,998.88
2021,09,24,05,13,998.88
2021,09,24,05,14,998.88
2021,09,24,05,15,998.88
2021,09,24,05,16,998.88
2021,09,24,05,17,998.88
2021,09,24,05,18,998.88
2021,09,24,05,19,998.88
2021,09,24,05,20,998.88
2021,09,24,05,21,998.88
2021,09,24,05,22,998.88
2021,09,24,05,23,998.88
2021,09,24,05,24,998.88
2021,09,24,05,25,998.88
2021,09,24,05,26,998.88
2021,09,24,05,27,998.88
2021,09,24,05,28,998.88
2021,09,24,05,29,998.88
2021,09,24,05,30,998.88
2021,09,24,05,31,998.88
2021,09,24,05,32,998.88
2021,09,24,05,33,998.88
2021,09,24,05,34,1001.37
2021,09,24,05,35,1002.14
2021,09,24,05,36,1002.03
2021,09,24,05,37,1002.03
2021,09,24,05,38,1002.03
2021,09,24,05,39,1002.03
2021,09,24,05,40,1002.03
2021,09,24,05,41,1002.03
2021,09,24,05,42,1002.03
2021,09,24,05,43,1003.63
2021,09,24,05,44,1004.27
2021,09,24,05,45,1004.27
2021,09,24,05,46,1004.27
2021,09,24,05,47,1004.27
2021,09,24,05,48,1004.27
2021,09,24,05,49,1004.27
2021,09,24,05,50,1004.27
2021,09,24,05,51,1004.27
2021,09,24,05,52,1004.27
2021,09,24,05,53,1004.27
2021,09,24,05,54,1004.27
2021,09,24,05,55,1004.27
2021,09,24,05,56,1004.27
2021,09,24,05,57,1004.27
2021,09,24,05,58,1004.27
2021,09,24,05,59,1004.27
2021,09,24,06,00,1004.27
2021,09,24,06,01,1004.27
2021,09,24,06,02,1004.27
2021,09,24,06,03,1004.27
2021,09,24,06,04,1004.27
2021,09,24,06,05,1004.27
2021,09,24,06,06,1004.27
2021,09,24,06,07,1004.27
2021,09,24,06,08,1004.27
2021,09,24,06,09,1004.27
2021,09,24,06,10,1004.27
2021,09,24,06,11,1004.27
2021,09,24,06,12,1004.27
2021,09,24,06,13,1004.27
2021,09,24,06,14,1004.27
2021,09,24,06,15,1004.27
2021,09,24,06,16,1004.27
2021,09,24,06,17,1004.27
2021,09,24,06,18,1004.27
2021,09,24,06,19,1004.27
2021,09,24,06,20,1004.27
2021,09,24,06,21,1004.27
2021,09,24,06,22,1004.27
2021,09,24,06,23,999.48
2021,09,24,06,24,997.43
2021,09,24,06,25,997.43
2021,09,24,06,26,997.43
2021,09,24,06,27,997.43
2021,09,24,06,28,997.43
2021,09,24,06,29,997.43
2021,09,24,06,30,997.43
2021,09,24,06,31,997.43
2021,09,24,06,32,997.43
2021,09,24,06,33,997.43
2021,09,24,06,34,997.43
2021,09,24,06,35,997.43
2021,09,24,06,36,997.43
2021,09,24,06,37,997.43
2021,09,24,06,38,997.43
2021,09,24,06,39,997.43
2021,09,24,06,40,997.43
2021,09,24,06,41,997.43
2021,09,24,06,42,997.43
2021,09,24,06,43,1004.58
2021,09,24,06,44,1007.65
2021,09,24,06,45,1007.65
2021,09,24,06,46,1007.65
2021,09,24,06,47,1007.65
2021,09,24,06,48,1005.40
2021,09,24,06,49,1004.44
2021,09,24,06,50,1004.44
2021,09,24,06,51,1009.75
2021,09,24,06,52,1012.02
2021,09,24,06,53,1012.02
2021,09,24,06,54,1012.02
2021,09,24,06,55,1012.02
2021,09,24,06,56,1012.02
2021,09,24,06,57,1012.02
2021,09,24,06,58,1012.02
2021,09,24,06,59,1012.02
2021,09,24,07,00,1012.02
2021,09,24,07,01,1012.02
2021,09,24,07,02,1012.02
2021,09,24,07,03,1012.02
2021,09,24,07,04,1012.02
2021,09,24,07,05,1012.02
2021,09,24,07,06,1012.02
2021,09,24,07,07,1012.02
2021,09,24,07,08,987.78
2021,09,24,07,09,976.60
2021,09,24,07,10,976.60
2021,09,24,07,11,976.60
2021,09,24,07,12,976.60
2021,09,24,07,13,976.60
2021,09,24,07,14,976.60
2021,09,24,07,15,976.60
2021,09,24,07,16,976.60
2021,09,24,07,17,976.60
2021,09,24,07,18,977.12
2021,09,24,07,19,977.35
2021,09,24,07,20,977.35
2021,09,24,07,21,977.35
2021,09,24,07,22,977.35
2021,09,24,07,23,977.35
2021,09,24,07,24,977.35
2021,09,24,07,25,977.35
2021,09,24,07,26,977.35
2021,09,24,07,27,977.35
2021,09,24,07,28,977.35
2021,09,24,07,29,977.35
2021,09,24,07,30,977.35
2021,09,24,07,31,977.35
2021,09,24,07,32,977.35
2021,09,24,07,33,977.35
2021,09,24,07,34,977.35
2021,09,24,07,35,977.35
2021,09,24,07,36,977.35
2021,09,24,07,37,977.35
2021,09,24,07,38,977.35
2021,09,24,07,39,977.35
2021,09,24,07,40,977.35
2021,09,24,07,41,977.35
2021,09,24,07,42,977.35
2021,09,24,07,43,977.35
2021,09,24,07,44,977.35
2021,09,24,07,45,977.35
2021,09,24,07,46,977.35
2021,09,24,07,47,977.35
2021,09,24,07,48,977.35
2021,09,24,07,49,977.35
2021,09,24,07,50,977.35
2021,09,24,07,51,977.35
2021,09,24,07,52,977.35
2021,09,24,07,53,972.99
2021,09,24,07,54,971.12
2021,09,24,07,55,971.12
2021,09,24,07,56,971.12
2021,09,24,07,57,971.12
2021,09,24,07,58,971.12
2021,09,24,07,59,971.12
2021,09,24,08,00,971.12
2021,09,24,08,01,971.12
2021,09,24,08,02,971.12
2021,09,24,08,03,971.12
2021,09,24,08,04,971.12
2021,09,24,08,05,971.12
2021,09,24,08,06,971.12
2021,09,24,08,07,971.12
2021,09,24,08,08,971.12
2021,09,24,08,09,971.12
2021,09,24,08,10,971.12
2021,09,24,08,11,971.12
2021,09,24,08,12,971.12
2021,09,24,08,13,971.12
2021,09,24,08,14,971.12
2021,09,24,08,15,971.12
2021,09,24,08,16,971.12
2021,09,24,08,17,971.12
2021,09,24,08,18,971.12
2021,09,24,08,19,971.12
2021,09,24,08,20,971.12
2021,09,24,08,21,971.12
2021,09,24,08,22,971.12
2021,09,24,08,23,971.12
2021,09,24,08,24,971.12
2021,09,24,08,25,971.12
2021,09,24,08,26,971.12
2021,09,24,08,27,971.12
2021,09,24,08,28,971.12
2021,09,24,08,29,971.12
2021,09,24,08,30,971.12
2021,09,24,08,31,971.12
2021,09,24,08,32,971.12
2021,09,24,08,33,971.12
2021,09,24,08,34,971.12
2021,09,24,08,35,971.12
2021,09,24,08,36,971.12
2021,09,24,08,37,971.12
2021,09,24,08,38,971.12
2021,09,24,08,39,971.12
2021,09,24,08,40,971.12
2021,09,24,08,41,971.12
2021,09,24,08,42,971.12
2021,09,24,08,43,971.12
2021,09,24,08,44,971.12
2021,09,24,08,45,971.12
2021,09,24,08,46,971.12
2021,09,24,08,47,971.12
2021,09,24,08,48,971.12
2021,09,24,08,49,971.12
2021,09,24,08,50,971.12
2021,09,24,08,51,971.12
2021,09,24,08,52,971.12
2021,09,24,08,53,971.12
2021,09,24,08,54,971.12
2021,09,24,08,55,971.12
2021,09,24,08,56,971.12
2021,09,24,08,57,971.12
2021,09,24,08,58,971.12
2021,09,24,08,59,971.12
2021,09,24,09,00,971.12
2021,09,24,09,01,971.12
2021,09,24,09,02,971.12
2021,09,24,09,03,971.12
2021,09,24,09,04,971.12
2021,09,24,09,05,971.12
2021,09,24,09,06,971.12
2021,09,24,09,07,971.12
2021,09,24,09,08,971.12
2021,09,24,09,09,971.12
2021,09,24,09,10,971.12
2021,09,24,09,11,971.12
2021,09,24,09,12,971.12
2021,09,24,09,13,971.12
2021,09,24,09,14,971.12
2021,09,24,09,15,971.12
2021,09,24,09,16,971.12
2021,09,24,09,17,971.12
2021,09,24,09,18,971.12
2021,09,24,13,42,962.92
2021,09,24,13,43,962.92
2021,09,24,13,44,962.92
2021,09,24,13,45,962.84
2021,09,24,13,46,962.85
2021,09,24,13,47,962.63
2021,09,24,13,48,962.49
2021,09,24,13,49,962.54
2021,09,24,13,50,962.77
2021,09,24,13,51,962.75
2021,09,24,13,52,962.44
2021,09,24,13,53,962.51
2021,09,24,13,54,962.31
2021,09,24,13,55,962.11
2021,09,24,13,56,962.11
2021,09,24,13,57,962.11
2021,09,24,13,58,962.15
2021,09,24,13,59,962.17
2021,09,24,14,00,962.17
2021,09,24,14,01,962.17
2021,09,24,14,02,962.17
2021,09,24,14,03,962.17
2021,09,24,14,04,962.17
2021,09,24,14,05,962.17
2021,09,24,14,06,964.06
2021,09,24,14,07,965.18
2021,09,24,14,08,965.19
2021,09,24,14,09,965.19
2021,09,24,14,10,966.24
2021,09,24,14,11,966.85
2021,09,24,14,12,966.85
2021,09,24,14,13,966.85
2021,09,24,14,14,966.85
2021,09,24,14,15,966.85
2021,09,24,14,16,966.85
2021,09,24,14,17,966.85
2021,09,24,14,18,966.85
2021,09,24,14,19,966.85
2021,09,24,14,20,966.85
2021,09,24,14,21,966.85
2021,09,24,14,22,963.76
2021,09,24,14,23,961.90
2021,09,24,14,24,962.01
2021,09,24,14,25,963.76
2021,09,24,14,26,964.92
2021,09,24,14,27,964.92
2021,09,24,14,28,964.92
2021,09,24,14,29,966.86
2021,09,24,14,30,967.90
2021,09,24,14,31,966.23
2021,09,24,14,32,965.26
2021,09,24,14,33,965.26
2021,09,24,14,34,965.26
2021,09,24,14,35,965.13
2021,09,24,14,36,965.05
2021,09,24,14,37,963.23
2021,09,24,14,38,962.05
2021,09,24,14,39,962.07
2021,09,24,14,40,962.07
2021,09,24,14,41,962.18
2021,09,24,14,42,962.30
2021,09,24,14,43,962.22
2021,09,24,14,44,962.29
2021,09,24,14,45,962.12
2021,09,24,14,46,962.06
2021,09,24,14,47,962.16
2021,09,24,14,48,962.13
2021,09,24,14,49,962.03
2021,09,24,14,50,961.97
2021,09,24,14,51,961.97
2021,09,24,14,52,961.97
2021,09,24,14,53,962.14
2021,09,24,14,54,962.42
2021,09,24,14,55,962.58
2021,09,24,14,56,962.58
2021,09,24,14,57,962.34
2021,09,24,14,58,962.27
2021,09,24,14,59,962.34
2021,09,24,15,00,962.54
2021,09,24,15,01,962.73
2021,09,24,15,02,962.74
2021,09,24,15,03,962.96
2021,09,24,15,04,962.99
2021,09,24,15,05,962.86
2021,09,24,15,06,962.82
2021,09,24,15,07,963.65
2021,09,24,15,08,964.21
2021,09,24,15,09,963.11
2021,09,24,15,10,962.38
2021,09,24,15,11,961.40
2021,09,24,15,12,960.79
2021,09,24,15,13,960.79
2021,09,24,15,14,960.79
2021,09,24,15,15,960.79
2021,09,24,15,16,960.79
2021,09,24,15,17,960.79
2021,09,24,15,18,960.79
2021,09,24,15,19,960.79
2021,09,24,15,20,960.79
2021,09,24,15,21,960.79
2021,09,24,15,22,960.79
2021,09,24,15,23,960.79
2021,09,24,15,24,970.86
2021,09,24,15,25,978.19
2021,09,24,15,26,978.19
2021,09,24,15,27,978.19
2021,09,24,15,28,978.19
2021,09,24,15,29,978.19
2021,09,24,15,30,978.19
2021,09,24,15,31,978.19
2021,09,24,15,32,978.19
2021,09,24,15,33,998.84
2021,09,24,15,34,1013.85
2021,09,24,15,35,1013.85
2021,09,24,15,36,1013.85
2021,09,24,15,37,1013.85
2021,09,24,15,38,1013.85
2021,09,24,15,39,1013.85
2021,09,24,15,40,1013.85
2021,09,24,15,41,1013.85
2021,09,24,15,42,1013.85
2021,09,24,15,43,1013.85
2021,09,24,15,44,1013.85
2021,09,24,15,45,1013.85
2021,09,24,15,46,1013.85
2021,09,24,15,47,1013.85
2021,09,24,15,48,1013.85
2021,09,24,15,49,1013.85
2021,09,24,15,50,1013.85
2021,09,24,15,51,1013.85
2021,09,24,15,52,1013.85
2021,09,24,15,53,1040.99
2021,09,24,15,54,1059.09
2021,09,24,15,55,1059.09
2021,09,24,15,56,1059.09
2021,09,24,15,57,1059.09
2021,09,24,15,58,1059.09
2021,09,24,15,59,1059.09
2021,09,24,16,00,1059.09
2021,09,24,16,01,1059.09
2021,09,24,16,02,1059.09
2021,09,24,16,03,1059.09
2021,09,24,16,04,1059.09
2021,09,24,16,05,1059.09
2021,09,24,16,06,1059.09
2021,09,24,16,07,1059.09
2021,09,24,16,08,1059.09
2021,09,24,16,09,1059.09
2021,09,24,16,10,1059.09
2021,09,24,16,11,1059.09
2021,09,24,16,12,1059.09
2021,09,24,16,13,1059.09
2021,09,24,16,14,1059.09
2021,09,24,16,15,1059.09
2021,09,24,16,16,1059.09
2021,09,24,16,17,1059.09
2021,09,24,16,18,1059.09
2021,09,24,16,19,1059.09
2021,09,24,16,20,1059.09
2021,09,24,16,21,1059.09
2021,09,24,16,22,1059.09
2021,09,24,16,23,1059.09
2021,09,24,16,24,1059.09
2021,09,24,16,25,973.65
2021,09,24,16,26,911.51
2021,09,24,16,27,911.51
2021,09,24,16,28,908.05
2021,09,24,16,29,906.03
2021,09,24,16,30,906.03
2021,09,24,16,31,906.03
2021,09,24,16,32,906.03
2021,09,24,16,33,906.03
2021,09,24,16,34,906.03
2021,09,24,16,35,906.03
2021,09,24,16,36,906.03
2021,09,24,16,37,906.03
2021,09,24,16,38,906.03
2021,09,24,16,39,906.03
2021,09,24,16,40,906.03
2021,09,24,16,41,906.03
2021,09,24,16,42,906.03
2021,09,24,16,43,906.03
2021,09,24,16,44,906.03
2021,09,24,16,45,906.03
2021,09,24,16,46,906.03
2021,09,24,16,47,906.03
2021,09,24,16,48,974.02
2021,09,24,16,49,1019.34
2021,09,24,16,50,1019.34
2021,09,24,16,51,1019.34
2021,09,24,16,52,1019.34
2021,09,24,16,53,1019.34
2021,09,24,16,54,1019.34
2021,09,24,16,55,1019.34
2021,09,24,16,56,1019.34
2021,09,24,16,57,1019.34
2021,09,24,16,58,1019.34
2021,09,24,16,59,1019.34
2021,09,24,17,00,1019.34
2021,09,24,17,01,1019.34
2021,09,24,17,02,1019.34
2021,09,24,17,03,1019.34
2021,09,24,17,04,1019.34
2021,09,24,17,05,1019.34
2021,09,24,17,06,1019.34
2021,09,24,17,07,1019.34
2021,09,24,17,08,1019.34
2021,09,24,17,09,1019.34
2021,09,24,17,10,1019.34
2021,09,24,17,11,1019.34
2021,09,24,17,12,1019.34
2021,09,24,17,13,1019.34
2021,09,24,17,14,1019.34
2021,09,24,17,15,1019.34
2021,09,24,17,16,1019.34
2021,09,24,17,17,1019.34
2021,09,24,17,18,1019.34
2021,09,24,17,19,1019.34
2021,09,24,17,20,1019.34
2021,09,24,17,21,1019.34
2021,09,24,17,22,1019.34
2021,09,24,17,23,1019.34
2021,09,24,17,24,1019.34
2021,09,24,17,25,1019.34
2021,09,24,17,26,1019.34
2021,09,24,17,27,1019.34
2021,09,24,17,28,1019.34
2021,09,24,17,29,1019.34
2021,09,24,17,30,1019.34
2021,09,24,17,31,1019.34
2021,09,24,17,32,1019.34
2021,09,24,17,33,1019.34
2021,09,24,17,34,1019.34
2021,09,24,17,35,1019.34
2021,09,24,17,36,1019.34
2021,09,24,17,37,1019.34
2021,09,24,17,38,1019.34
2021,09,24,17,39,1019.34
2021,09,24,17,40,1019.34
2021,09,24,17,41,1019.34
2021,09,24,17,42,1019.34
2021,09,24,17,43,1019.34
2021,09,24,17,44,1019.34
2021,09,24,17,45,1019.34
2021,09,24,17,46,1019.34
2021,09,24,17,47,1019.34
2021,09,24,17,48,1019.34
2021,09,24,17,49,1019.34
2021,09,24,17,50,1019.34
2021,09,24,17,51,1019.34
2021,09,24,17,52,1019.34
2021,09,24,17,53,1019.34
2021,09,24,17,54,1019.34
2021,09,24,17,55,1019.34
2021,09,24,17,56,1019.34
2021,09,24,17,57,1019.34
2021,09,24,17,58,1019.34
2021,09,24,17,59,1019.34
2021,09,24,18,00,1019.34
2021,09,24,18,01,1019.34
2021,09,24,18,02,1019.34
2021,09,24,18,03,1019.34
2021,09,24,18,04,1019.34
2021,09,24,18,05,1019.34
2021,09,24,18,06,1019.34
2021,09,24,18,07,1019.34
2021,09,24,18,08,1019.34
2021,09,24,18,09,1019.34
2021,09,24,18,10,1019.34
2021,09,24,18,11,1019.34
2021,09,24,18,12,1019.34
2021,09,24,18,13,1019.34
2021,09,24,18,14,1019.34
2021,09,24,18,15,1019.34
2021,09,24,18,16,1019.34
2021,09,24,18,17,1019.34
2021,09,24,18,18,1019.34
2021,09,24,18,19,1019.34
2021,09,24,18,20,1019.34
2021,09,24,18,21,1019.34
2021,09,24,18,22,1019.34
2021,09,24,18,23,1019.34
2021,09,24,18,24,1019.34
2021,09,24,18,25,1019.34
2021,09,24,18,26,1019.34
2021,09,24,18,27,1019.34
2021,09,24,18,28,1019.34
2021,09,24,18,29,1019.34
2021,09,24,18,30,1019.34
2021,09,24,18,31,1019.34
2021,09,24,18,32,1019.34
2021,09,24,18,33,1019.34
2021,09,24,18,34,1019.34
2021,09,24,18,35,1019.34
2021,09,24,18,36,1019.34
2021,09,24,18,37,1019.34
2021,09,24,18,38,1019.34
2021,09,24,18,39,1019.34
2021,09,24,18,40,1019.34
2021,09,24,18,41,1019.34
2021,09,24,18,42,1019.34
2021,09,24,18,43,1019.34
2021,09,24,18,44,1019.34
2021,09,24,18,45,1019.34
2021,09,24,18,46,1019.34
2021,09,24,18,47,1019.34
2021,09,24,18,48,1019.34
2021,09,24,18,49,1019.34
2021,09,24,18,50,1019.34
2021,09,24,18,51,1019.34
2021,09,24,18,52,1019.34
2021,09,24,18,53,1019.34
2021,09,24,18,54,1019.34
2021,09,24,18,55,1019.34
2021,09,24,18,56,1019.34
2021,09,24,18,57,1019.34
2021,09,24,18,58,1019.34
2021,09,24,18,59,1019.34
2021,09,24,19,00,1019.34
2021,09,24,19,01,1019.34
2021,09,24,19,02,1019.34
2021,09,24,19,03,1019.34
2021,09,24,19,04,1019.34
2021,09,24,19,05,1019.34
2021,09,24,19,06,1019.34
2021,09,24,19,07,1019.34
2021,09,24,19,08,1019.34
2021,09,24,19,09,1019.34
2021,09,24,19,10,1019.34
2021,09,24,19,11,1019.34
2021,09,24,19,12,1019.34
2021,09,24,19,13,1019.34
2021,09,24,19,14,1019.34
2021,09,24,19,15,1019.34
2021,09,24,19,16,1019.34
2021,09,24,19,17,1019.34
2021,09,24,19,18,1019.34
2021,09,24,19,19,1019.34
2021,09,24,19,20,1019.34
2021,09,24,19,21,1019.34
2021,09,24,19,22,1019.34
2021,09,24,19,23,1019.34
2021,09,24,19,24,1019.34
2021,09,24,19,25,1019.34
2021,09,24,19,26,1019.34
2021,09,24,19,27,1019.34
2021,09,24,19,28,1019.34
2021,09,24,19,29,1019.34
2021,09,24,19,30,1019.34
2021,09,24,19,31,1019.34
2021,09,24,19,32,1019.34
2021,09,24,19,33,1019.34
2021,09,24,19,34,1019.34
2021,09,24,19,35,1019.34
2021,09,24,19,36,1019.34
2021,09,24,19,37,1019.34
2021,09,24,19,38,1019.34
2021,09,24,19,39,1019.34
2021,09,24,19,40,1019.34
2021,09,24,19,41,1019.34
2021,09,24,19,42,1019.34
2021,09,24,19,43,1019.34
2021,09,24,19,44,1019.34
2021,09,24,19,45,1019.34
2021,09,24,19,46,1019.34
2021,09,24,19,47,1019.34
2021,09,24,19,48,1019.34
2021,09,24,19,49,1019.34
2021,09,24,19,50,1019.34
2021,09,24,19,51,1019.34
2021,09,24,19,52,1019.34
2021,09,24,19,53,1019.34
2021,09,24,19,54,1019.34
2021,09,24,19,55,1019.34
2021,09,24,19,56,1019.34
2021,09,24,19,57,1019.34
2021,09,24,19,58,1019.34
2021,09,24,19,59,1019.34
2021,09,24,20,00,1019.34
2021,09,24,20,01,1019.34
2021,09,24,20,02,1019.34
2021,09,24,20,03,1019.34
2021,09,24,20,04,1019.34
2021,09,24,20,05,1019.34
2021,09,24,20,06,1019.34
2021,09,24,20,07,1019.34
2021,09,24,20,08,1019.34
2021,09,24,20,09,1019.34
2021,09,24,20,10,1019.34
2021,09,24,20,11,1019.34
2021,09,24,20,12,1019.34
2021,09,24,20,13,1019.34
2021,09,24,20,14,1019.34
2021,09,24,20,15,1019.34
2021,09,24,20,16,1019.34
2021,09,24,20,17,1019.34
2021,09,24,20,18,1019.34
2021,09,24,20,19,1019.34
2021,09,24,20,20,1019.34
2021,09,24,20,21,1019.34
2021,09,24,20,22,1019.34
2021,09,24,20,23,1019.34
2021,09,24,20,24,1019.34
2021,09,24,20,25,1019.34
2021,09,24,20,26,1019.34
2021,09,24,20,27,1019.34
2021,09,24,20,28,1019.34
2021,09,24,20,29,1019.34
2021,09,24,20,30,1019.34
2021,09,24,20,31,1019.34
2021,09,24,20,32,1019.34
2021,09,24,20,33,1019.34
2021,09,24,20,34,1019.34
2021,09,24,20,35,1019.34
2021,09,24,20,36,1019.34
2021,09,24,20,37,1019.34
2021,09,24,20,38,1019.34
2021,09,24,20,39,1019.34
2021,09,24,20,40,1019.34
2021,09,24,20,41,1019.34
2021,09,24,20,42,1019.34
2021,09,24,20,43,1019.34
2021,09,24,20,44,1019.34
2021,09,24,20,45,1019.34
2021,09,24,20,46,1019.34